Location: Unspecified
(35.7250°N, 0.0000°E)
Time: 16:13:37
(UTC+00:00)

Vanguard 1 - Pass Details

Date: 26 June 2019
Orbit: 653 x 3830 km, 34.3° (Epoch: 18 July)

Event Time Altitude Azimuth Distance (km) Brightness Sun altitude
Rises 23:53:20 0° 222° (SW) 7,871 - -30.9°
Reaches altitude 10° 23:58:56 10° 218° (SW) 6,922 - -30.9°
Exits shadow 00:14:23 43° 188° (S) 4,488 12.8 -30.8°
Maximum altitude 00:20:42 51° 150° (SSE) 3,901 12.6 -30.7°
Drops below altitude 10° 00:35:49 10° 81° (E) 5,021 13.8 -30.4°
Sets 00:39:05 0° 76° (ENE) 5,672 14.2 -30.3°
